Lapse_Rate
4.5 4.8 6.0 6.2 6.0 6.2 6.1 6.0 6.0 5.9 6.6 6.8 6.4 6.4 6.1 6.1 6.1 6.4 6.2 5.6 5.3 5.1 5.3 5.7 6.4 6.5 6.8 6.4 6.0 5.8 5.7 5.7 5.4 5.1 5.4 5.8 6.4 7.1 6.9 6.9 6.7 6.3 6.3
4.3 5.2 6.0 6.0 6.0 6.2 6.3 6.1 6.0 5.8 6.4 6.4 6.4 6.3 6.3 6.4 6.6 6.3 5.8 5.5 5.1 5.2 5.4 5.4 6.1 6.0 6.1 5.8 5.5 5.4 5.3 5.1 4.8 4.3 4.3 4.4 5.3 5.8 6.0 6.6 7.6 8.4 7.1
4.9 5.3 6.0 5.8 5.8 6.1 6.0 5.8 5.9 6.0 6.5 6.6 6.6 6.6 6.2 6.2 6.7 6.1 5.8 5.1 4.8 5.0 5.3 5.4 5.3 5.4 5.2 5.1 5.1 5.1 4.7 4.2 3.8 3.5 3.4 3.5 4.2 4.7 5.0 5.0 5.5 8.9 8.5
5.0 5.2 5.5 5.7 5.8 6.0 5.9 5.7 6.0 6.1 6.0 6.6 6.7 6.4 6.4 6.2 6.6 5.9 5.4 4.6 4.4 4.6 4.7 4.5 4.5 4.2 4.5 4.7 4.9 4.7 4.2 3.5 3.1 2.9 3.0 3.1 4.0 4.4 4.4 4.5 4.8 5.3 6.8
4.8 5.0 5.3 5.6 5.7 6.1 5.7 5.6 6.0 6.4 5.7 5.5 6.1 6.4 6.5 6.7 5.9 5.3 4.9 4.1 3.9 4.0 4.0 4.0 3.8 3.9 4.1 4.5 4.5 4.4 3.8 3.3 2.9 2.9 2.9 3.2 3.9 4.6 4.5 4.0 4.0 4.4 5.0
4.5 4.6 5.3 5.5 5.7 5.8 5.5 5.6 5.9 6.3 5.7 5.5 5.2 5.4 6.0 6.4 5.4 4.8 4.0 3.4 3.2 3.4 3.6 3.7 3.7 4.0 4.2 4.6 4.8 4.3 3.9 3.1 2.6 2.6 2.7 3.5 4.0 4.9 4.7 4.5 4.3 4.2 4.5
4.7 4.7 5.3 5.6 5.7 5.4 5.4 5.6 5.9 5.9 5.5 5.2 5.1 5.3 5.4 5.6 4.6 3.9 3.4 3.0 3.0 3.3 3.7 4.0 4.2 4.2 4.3 4.6 4.6 4.4 3.8 3.1 2.7 2.5 2.7 3.2 4.4 5.0 4.8 4.6 4.6 4.6 4.6
4.6 4.9 5.5 5.5 5.3 5.1 5.2 5.5 6.1 5.9 5.4 5.0 4.8 5.0 5.9 4.8 4.3 3.7 3.3 3.2 3.4 3.7 4.1 4.3 4.4 4.5 4.6 4.8 4.4 4.0 3.5 3.4 3.0 2.7 2.9 3.4 4.9 5.2 4.9 4.7 4.6 4.7 4.6
4.6 4.5 4.5 4.9 4.8 4.7 4.9 5.5 5.7 5.6 5.5 4.9 4.5 4.3 4.3 4.1 3.9 3.6 3.4 3.5 3.7 3.8 3.9 4.0 4.2 4.3 4.4 4.3 4.1 3.6 3.4 3.3 3.0 3.1 3.5 3.6 4.9 5.3 5.1 4.9 4.8 4.8 4.7
4.4 4.3 4.4 4.3 4.0 4.0 4.4 5.3 5.7 5.5 5.5 5.3 4.5 4.0 3.6 3.4 3.7 3.7 3.5 3.3 3.4 3.5 3.5 3.6 3.8 3.9 4.1 4.1 3.9 4.0 3.7 3.2 3.0 3.0 3.3 3.7 4.8 5.5 5.3 5.1 5.0 4.8 4.6
4.3 4.4 3.6 3.3 3.2 3.3 3.7 4.8 5.4 6.1 5.7 6.1 4.9 3.9 3.3 2.7 2.8 2.7 2.6 3.1 3.1 3.2 3.4 3.5 3.7 3.6 3.6 3.5 3.5 3.3 3.4 3.2 3.0 3.0 3.3 4.4 4.7 5.6 5.3 5.1 4.9 4.9 4.6
5.2 4.2 3.6 3.0 2.6 2.8 3.4 3.8 4.4 5.3 5.1 5.6 4.7 3.6 2.8 2.5 2.4 2.5 2.5 2.8 2.9 3.0 3.2 3.4 3.5 3.4 3.1 2.7 2.8 3.2 2.9 3.0 3.1 3.2 3.5 4.6 5.0 6.0 5.7 5.3 5.0 4.9 4.8
5.1 4.7 3.8 3.1 3.0 2.7 2.2 2.4 3.3 4.1 4.7 4.4 4.3 3.5 2.7 2.2 1.9 1.9 1.7 1.9 2.0 2.4 2.1 2.5 2.5 2.6 2.5 2.5 2.6 2.7 3.0 3.1 3.2 3.7 4.2 4.8 5.2 6.3 6.8 5.9 5.5 5.4 5.2
4.3 4.1 3.2 3.3 3.1 3.3 2.9 2.0 2.4 3.0 3.4 3.6 3.7 3.5 2.4 1.6 1.4 1.3 1.3 1.5 1.5 1.7 1.5 1.5 1.5 2.0 2.4 2.7 2.7 2.9 3.5 3.6 3.8 4.0 4.6 5.3 5.5 6.3 7.1 7.3 6.8 6.1 5.9
3.8 3.3 2.6 2.1 2.1 3.2 3.1 2.7 1.9 2.2 2.5 3.0 3.0 3.3 2.8 1.6 1.2 1.6 1.5 1.2 1.1 1.2 1.3 1.1 1.3 1.7 2.1 2.6 3.0 2.9 3.3 3.8 4.2 4.3 4.7 5.3 5.6 5.5 6.6 7.3 7.6 7.4 6.9
3.7 3.5 3.4 3.1 1.9 1.4 3.0 3.3 2.7 1.7 1.9 2.7 2.7 2.9 2.8 2.4 2.2 1.8 1.5 1.1 1.0 1.4 1.8 1.7 1.5 1.4 1.6 2.1 2.7 3.5 3.6 4.0 4.3 4.5 4.8 5.3 5.7 5.9 5.6 6.7 7.6 7.6 7.4
4.2 3.9 2.8 2.8 0.9 0.5 1.7 3.4 3.5 3.0 2.9 2.2 1.9 2.6 2.7 2.6 2.5 2.5 1.9 1.3 1.7 2.2 2.2 2.0 1.7 1.7 1.2 2.3 2.5 3.5 4.1 4.4 4.5 4.7 5.1 5.4 5.7 5.5 5.6 5.3 6.4 7.4 7.3
3.5 3.8 4.2 3.5 1.2 2.2 1.4 2.3 3.3 3.5 3.3 3.3 3.3 2.9 3.2 3.1 3.0 2.3 1.7 1.5 2.6 2.4 2.0 1.6 1.6 1.9 2.1 2.6 3.4 3.9 4.0 4.6 5.3 5.7 6.3 6.2 6.0 5.7 5.5 5.6 5.3 6.0 6.8
3.3 3.3 3.6 3.6 2.0 2.9 2.6 3.4 4.1 3.4 2.6 3.6 3.3 3.0 3.7 3.7 3.8 3.2 2.9 2.9 3.6 2.6 1.9 2.2 2.6 3.1 3.6 3.9 4.6 5.5 5.7 5.9 6.0 6.3 5.6 5.5 5.2 4.9 5.1 5.2 5.5 5.3 5.9
3.6 2.9 2.5 2.9 3.0 3.5 2.9 3.1 2.1 2.2 2.4 3.7 3.9 3.7 3.9 4.3 3.9 3.3 3.3 3.3 3.8 2.8 2.7 2.8 3.3 3.2 3.9 4.8 5.6 5.7 4.6 4.6 4.5 3.5 3.4 3.7 3.7 3.9 4.3 4.4 4.4 4.7 5.1
3.9 3.4 3.4 3.1 3.1 3.3 3.0 3.8 3.4 3.7 2.6 2.8 3.3 4.6 4.7 4.7 4.7 4.3 3.9 4.1 3.6 3.6 3.6 3.4 4.0 4.3 5.0 4.9 5.1 4.2 3.8 3.7 3.4 2.7 2.1 1.7 2.0 2.6 3.1 3.4 3.5 3.7 4.0
3.5 4.0 4.1 4.0 4.5 4.4 4.0 4.2 3.7 3.5 3.2 2.7 2.9 3.1 3.9 4.5 4.6 4.6 4.8 4.4 3.3 3.8 3.7 4.1 4.8 5.6 5.9 5.0 5.4 4.9 4.8 3.9 3.0 3.0 2.1 2.4 1.9 2.3 3.0 3.2 3.2 3.1 3.0
2.2 2.7 3.8 4.5 4.6 3.3 3.9 3.5 3.2 3.0 3.2 3.2 3.2 4.0 3.6 3.7 3.4 3.4 3.5 3.7 3.2 3.4 3.5 4.2 4.2 4.7 5.4 4.1 5.0 6.4 5.4 4.1 3.2 3.9 4.0 3.4 3.1 2.4 2.2 2.6 2.5 2.6 2.4
2.1 2.1 2.5 2.4 3.0 4.2 4.1 4.4 4.6 3.9 4.8 4.9 3.5 2.4 2.3 3.0 2.6 3.0 3.8 3.7 3.9 4.0 4.8 4.4 3.5 3.7 4.2 4.0 2.5 2.8 3.4 4.5 5.4 4.4 3.2 3.4 2.7 3.3 2.7 2.6 2.1 1.7 1.9
1.9 1.2 1.3 1.9 2.3 2.6 2.1 2.8 3.1 3.2 3.2 2.7 2.3 2.7 2.5 1.3 1.5 2.1 2.1 3.7 4.4 3.6 2.5 2.7 2.4 2.7 2.6 2.6 2.1 2.1 2.3 1.7 2.5 4.7 4.0 2.6 2.6 2.4 2.1 2.1 1.9 1.7 1.9
0.0 0.0 0.6 0.9 1.4 1.5 1.4 1.9 2.4 2.8 2.4 2.1 2.0 2.4 1.3 1.3 1.6 1.4 1.1 1.1 1.9 2.1 2.3 2.1 1.5 1.1 0.5 0.1 0.3 1.0 1.9 2.8 2.7 3.0 4.3 4.1 2.9 2.7 1.4 1.3 1.1 0.9 1.3
Wind_Speed
10 15 22 23 22 19 18 16 15 16 15 16 17 20 23 23 23 23 22 20 19 20 20 20 19 19 19 19 19 17 18 19 20 19 18 17 15 14 15 14 10 16 14
13 18 23 23 21 20 18 17 15 15 13 14 18 20 22 25 24 22 21 20 19 20 20 20 19 18 16 15 15 16 17 17 16 17 18 17 14 15 14 16 16 14 12
15 18 20 22 20 19 18 16 15 15 14 13 15 20 22 22 23 22 20 19 19 19 19 19 17 16 13 11 12 14 13 14 15 14 14 12 11 12 13 13 13 15 16
14 17 17 21 20 20 18 16 15 17 15 13 13 16 21 21 23 19 20 19 18 17 17 17 16 13 12 13 14 14 13 12 13 13 13 12 10 13 12 11 12 12 13
11 15 17 20 21 20 17 16 14 18 15 13 13 14 17 19 20 19 18 18 17 16 16 15 14 12 12 14 14 13 12 12 12 13 12 11 11 12 12 12 11 10 11
10 14 19 21 21 18 17 16 15 17 15 14 13 12 14 16 17 17 16 16 15 15 15 14 13 12 12 12 12 12 11 11 12 11 10 9 9 12 12 12 11 11 10
11 15 17 21 19 18 16 14 16 17 15 14 15 15 15 15 15 15 14 14 14 14 13 12 11 11 11 11 9 10 10 10 10 9 8 8 9 10 11 11 11 11 10
12 13 16 20 19 17 15 13 17 19 17 15 13 15 14 15 15 13 12 11 11 11 11 10 9 8 9 9 9 8 8 8 7 7 6 6 7 8 9 10 10 10 10
13 11 13 15 17 16 13 12 14 17 17 16 12 12 13 14 14 12 11 10 9 9 8 8 7 7 7 8 7 7 6 6 5 3 3 3 3 6 7 8 8 9 9
10 9 11 13 15 14 12 11 11 15 17 16 14 13 12 12 12 11 10 8 8 7 6 6 5 5 5 5 6 5 5 4 2 3 2 1 0 3 4 5 6 6 7
7 11 11 10 12 13 11 9 8 12 19 19 15 14 13 11 10 10 8 7 6 5 4 3 2 2 2 2 3 3 2 1 0 3 4 3 3 1 2 2 3 3 4
6 7 8 8 10 13 10 9 7 5 10 12 14 13 11 11 10 10 9 8 6 5 3 2 1 1 1 2 2 2 1 0 2 2 5 6 6 4 3 3 2 2 2
11 7 8 8 8 8 9 10 7 6 7 9 14 12 10 8 8 7 6 6 5 5 4 3 3 3 3 3 3 3 3 3 4 4 5 7 8 7 6 6 6 5 4
11 13 11 10 8 7 7 8 9 6 8 7 11 13 10 7 7 7 6 6 6 5 5 4 4 4 4 4 4 5 5 5 5 6 8 8 9 10 9 8 8 8 7
14 11 12 14 13 7 4 2 8 7 7 8 11 13 12 8 5 8 8 8 8 7 7 6 5 5 4 5 6 7 7 7 8 8 9 10 11 12 12 11 11 10 11
5 6 11 14 14 14 6 5 3 7 11 11 10 13 14 11 8 7 6 7 8 9 9 8 6 5 5 4 6 6 8 8 8 9 9 11 13 13 14 15 15 13 13
13 10 11 14 12 14 13 7 8 9 10 10 12 15 15 15 12 9 6 5 10 11 9 7 6 4 3 4 5 6 7 8 8 9 9 10 12 12 15 14 17 15 15
8 10 15 8 8 8 10 6 7 10 11 11 11 15 18 16 17 11 5 5 11 11 10 4 3 3 3 4 3 4 4 6 9 9 8 8 10 10 11 14 15 14 17
14 12 9 3 7 7 6 7 10 11 8 10 12 12 14 15 15 12 8 9 11 8 6 4 4 3 3 4 4 4 4 4 5 5 7 10 11 9 12 14 12 12 14
9 7 5 4 5 5 8 8 3 4 3 6 8 10 16 16 17 13 9 9 10 4 4 3 5 4 4 4 3 3 4 4 4 4 5 6 10 11 11 12 10 11 13
8 8 8 7 8 4 3 3 5 6 2 3 6 13 13 13 14 13 9 8 8 5 6 5 3 5 4 3 1 2 3 4 4 3 3 4 5 7 7 6 5 5 5
10 12 11 13 12 10 8 4 2 2 2 1 3 7 9 12 15 13 9 7 6 5 6 5 4 2 2 3 2 1 3 4 3 1 1 2 3 5 3 2 3 5 6
7 9 11 14 13 14 12 4 2 2 2 2 3 3 2 6 4 3 6 5 5 4 4 4 4 6 4 1 1 2 2 3 1 2 0 1 2 2 2 2 5 8 8
8 6 7 6 7 13 12 8 13 9 12 9 6 3 4 4 6 7 4 2 0 1 3 3 3 2 1 3 0 2 1 1 2 4 1 1 2 3 2 2 4 6 8
3 6 6 6 5 4 6 6 7 7 6 2 2 7 4 5 11 9 11 2 3 2 3 4 3 2 1 1 1 1 0 0 3 4 3 3 3 2 3 1 3 4 4
2 3 3 3 3 1 3 5 6 7 5 3 3 3 3 2 2 1 9 7 4 2 3 3 1 2 2 2 1 0 2 2 1 2 3 3 2 2 1 2 2 3 5
Wind_Direction
162 155 153 146 143 142 135 129 131 128 117 115 126 129 127 123 123 118 110 112 112 111 112 109 108 100 93 88 89 89 86 80 73 70 72 79 76 75 70 52 83 71 61
142 148 151 147 146 143 137 133 133 130 123 114 123 132 131 129 124 119 117 117 117 115 115 116 110 105 99 94 93 96 92 81 72 70 67 57 59 65 63 50 54 69 68
140 144 150 148 146 141 136 135 138 140 126 122 114 123 132 128 124 121 120 118 119 118 120 117 113 107 97 99 104 107 98 84 79 75 72 64 60 64 64 65 41 53 49
138 141 145 146 144 138 134 138 144 135 129 127 122 126 127 128 123 122 122 123 121 122 122 119 114 106 101 105 114 108 100 90 86 81 74 65 62 68 66 67 67 62 54
127 132 143 144 140 135 135 141 146 135 130 131 129 130 128 125 121 124 125 126 125 126 125 121 113 104 101 112 111 107 98 91 88 83 77 70 67 69 69 69 67 65 62
119 124 141 142 137 134 135 145 145 133 131 135 136 133 130 131 127 128 130 129 129 131 130 126 116 106 98 103 113 109 99 97 90 83 77 72 71 72 70 69 69 67 62
128 128 137 136 132 134 138 147 149 135 135 137 142 144 141 140 134 133 132 131 131 132 132 128 117 106 101 99 104 113 103 97 93 85 78 72 72 71 69 67 65 65 62
130 128 134 132 131 133 141 145 149 141 139 139 145 148 143 140 140 135 135 128 127 129 129 124 115 104 96 93 92 105 114 105 95 87 75 68 71 69 69 67 65 64 63
121 124 123 123 127 130 135 138 152 151 143 140 143 144 140 140 143 145 140 134 129 125 123 118 111 100 95 96 95 96 113 128 115 107 80 66 66 73 73 70 67 64 61
121 127 123 120 121 128 138 141 146 154 144 142 144 142 138 141 149 151 151 147 139 136 132 126 117 102 84 81 87 86 95 110 134 184 189 215 342 78 81 79 74 72 67
136 144 129 125 122 129 137 143 142 158 159 148 146 149 148 149 151 152 160 159 152 151 151 145 128 112 94 85 90 103 132 120 331 237 234 242 245 208 134 112 96 86 80
148 141 135 132 137 135 131 135 131 122 138 133 148 155 157 161 163 166 170 172 175 175 182 208 253 294 337 347 351 26 94 305 299 266 240 242 246 250 226 216 206 165 123
157 144 139 125 127 135 139 142 141 148 146 146 153 163 163 166 168 174 178 186 193 201 204 234 264 284 298 309 327 326 307 307 291 282 263 249 246 251 253 237 236 229 222
168 165 155 146 141 136 148 150 150 154 166 164 168 175 169 172 183 187 189 199 207 211 220 226 248 260 273 275 280 299 299 288 283 283 279 270 256 251 258 256 248 241 241
177 170 170 162 151 135 130 169 153 160 172 185 184 192 191 183 190 195 204 204 213 213 222 225 226 243 261 276 275 264 271 275 274 273 277 282 277 258 255 260 258 251 246
162 164 176 193 159 143 147 160 194 171 182 190 200 207 207 207 205 205 203 210 217 216 219 214 214 224 246 259 279 273 270 272 271 270 277 287 282 272 260 252 254 259 257
180 195 206 191 164 153 150 171 175 187 192 196 200 214 219 220 220 219 214 212 220 220 222 224 230 237 242 246 257 261 261 265 267 271 275 277 286 286 270 258 254 256 263
150 191 210 196 144 148 136 150 190 182 194 206 208 198 212 218 218 213 212 225 226 220 210 209 212 227 231 223 238 249 242 252 258 260 258 269 284 294 289 267 253 255 260
183 185 195 183 130 131 127 204 218 208 192 209 199 196 210 206 216 210 211 222 218 205 203 195 210 199 213 227 233 245 230 227 238 259 269 280 291 295 287 283 267 259 256
161 170 163 162 129 209 174 187 221 234 188 223 219 198 207 208 203 201 216 214 203 191 209 200 211 216 228 233 242 271 274 269 261 255 282 309 300 293 281 272 262 255 245
153 174 182 164 175 169 219 222 227 225 147 195 219 228 210 205 199 196 205 207 186 197 209 194 198 217 237 221 244 311 291 258 272 299 306 313 322 318 289 288 272 261 220
174 193 190 200 188 195 213 207 187 156 195 181 229 220 225 219 196 194 203 208 191 203 205 203 185 217 227 203 204 358 312 317 337 221 104 42 1 341 11 74 136 120 105
183 191 198 197 189 211 212 169 105 108 348 321 331 263 337 307 304 289 244 232 193 194 216 217 207 218 225 106 299 203 303 261 335 298 170 61 47 33 33 93 109 125 129
216 183 205 204 207 201 209 203 204 217 221 232 201 143 150 142 93 67 25 280 316 253 23 338 11 329 260 232 269 0 0 49 284 317 337 206 2 19 15 40 118 139 147
272 226 207 199 220 188 192 195 188 198 212 158 205 169 195 153 157 153 126 171 164 147 137 184 161 217 321 308 232 114 88 234 232 238 288 313 11 41 36 13 127 123 123
64 199 212 225 249 211 202 220 208 214 201 178 176 167 153 102 329 129 147 140 137 176 199 205 158 150 144 111 71 233 212 210 214 195 243 277 265 272 10 36 108 134 139